This demonstration page uses our WeatherBlox Daily Observations layout. Learn more.

Left ArrowRight Arrow

Hourly Observations for July 20, 2020

Temp ( °F °C ) Dew Point ( °F °C ) Humidity (%) Winds ( mph kmh ) Pressure ( in mb ) Visibility ( mi km ) Precip ( " mm )
12:15 am 00:15 Clear 81 27 73 23 79 79 Calm 29.88 1012 10 16.0934 0 0
12:35 am 00:35 Clear 81 27 73 23 79 79 SSW 5 7 29.88 1012 10 16.0934 0 0
12:55 am 00:55 Clear 81 27 73 23 79 79 SW 3 6 29.87 1012 10 16.0934 0 0
1:15 am 01:15 Clear 81 27 73 23 79 79 WSW 5 7 29.88 1012 10 16.0934 0 0
1:35 am 01:35 Clear 81 27 73 23 79 79 W 3 6 29.88 1012 10 16.0934 0 0
1:55 am 01:55 Clear 79 26 73 23 84 84 W 3 6 29.87 1012 10 16.0934 0 0
2:15 am 02:15 Clear 79 26 73 23 84 84 WSW 5 7 29.88 1012 10 16.0934 0 0
2:35 am 02:35 Clear 79 26 73 23 84 84 WSW 3 6 29.88 1012 10 16.0934 0 0
2:55 am 02:55 Clear 79 26 73 23 84 84 WNW 6 9 29.88 1012 10 16.0934 0 0
3:15 am 03:15 Clear 81 27 72 22 74 74 W 7 11 29.89 1012 10 16.0934 0 0
3:35 am 03:35 Clear 81 27 72 22 74 74 W 5 7 29.9 1013 10 16.0934 0 0
3:55 am 03:55 Clear 81 27 72 22 74 74 WSW 5 7 29.91 1013 10 16.0934 0 0
4:15 am 04:15 Clear 81 27 72 22 74 74 W 3 6 29.91 1013 10 16.0934 0 0
4:35 am 04:35 Clear 81 27 72 22 74 74 Calm 29.91 1013 10 16.0934 0 0
4:55 am 04:55 Clear 81 27 72 22 74 74 Calm 29.92 1013 10 16.0934 0 0
5:15 am 05:15 Clear 79 26 72 22 79 79 WNW 5 7 29.92 1013 10 16.0934 0 0
5:35 am 05:35 Clear 79 26 70 21 74 74 WNW 6 9 29.92 1013 10 16.0934 0 0
5:55 am 05:55 Clear 79 26 70 21 74 74 W 3 6 29.93 1014 10 16.0934 0 0
6:15 am 06:15 Partly Cloudy 81 27 70 21 70 70 WSW 3 6 29.93 1014 10 16.0934 0 0
6:35 am 06:35 Partly Cloudy 81 27 70 21 70 70 WNW 5 7 29.93 1014 10 16.0934 0 0
6:55 am 06:55 Partly Cloudy 81 27 70 21 70 70 NW 3 6 29.94 1014 10 16.0934 0 0
7:15 am 07:15 Sunny 81 27 70 21 70 70 Calm 29.94 1014 10 16.0934 0 0
7:35 am 07:35 Sunny 82 28 70 21 66 66 Calm 29.94 1014 10 16.0934 0 0
7:55 am 07:55 Mostly Cloudy 82 28 70 21 66 66 Calm 29.94 1014 10 16.0934 0 0
8:15 am 08:15 Mostly Cloudy 82 28 70 21 66 66 Calm 29.94 1014 10 16.0934 0 0
8:35 am 08:35 Mostly Cloudy 86 30 70 21 59 59 SSW 3 6 29.95 1014 10 16.0934 0 0
8:55 am 08:55 Partly Cloudy 84 29 72 22 66 66 Calm 29.96 1015 10 16.0934 0 0
9:15 am 09:15 Sunny 86 30 70 21 59 59 NW 6 9 29.95 1014 10 16.0934 0 0
9:35 am 09:35 Sunny 88 31 70 21 55 55 W 7 11 29.95 1014 10 16.0934 0 0
9:55 am 09:55 Partly Cloudy 88 31 70 21 55 55 WNW 6 9 29.95 1014 10 16.0934 0 0
10:15 am 10:15 Sunny 90 32 70 21 52 52 NW 8 13 29.95 1014 10 16.0934 0 0
10:35 am 10:35 Sunny 90 32 70 21 52 52 NNW 9 15 29.95 1014 10 16.0934 0 0
10:55 am 10:55 Sunny 91 33 70 21 49 49 WNW 6 9 29.93 1014 10 16.0934 0 0
11:15 am 11:15 Sunny 90 32 72 22 55 55 W 9 15 29.95 1014 10 16.0934 0 0
11:35 am 11:35 Sunny 90 32 72 22 55 55 W 8 13 29.94 1014 10 16.0934 0 0
11:55 am 11:55 Sunny 91 33 72 22 52 52 WNW 12 19 29.94 1014 10 16.0934 0 0
12:15 pm 12:15 Sunny 90 32 72 22 55 55 WNW 7 11 29.94 1014 10 16.0934 0 0
12:35 pm 12:35 Sunny 91 33 72 22 52 52 Calm 29.92 1013 10 16.0934 0 0
12:55 pm 12:55 Sunny 95 35 72 22 47 47 WSW 5 7 29.92 1013 10 16.0934 0 0
1:15 pm 13:15 Sunny 93 34 73 23 53 53 W 5 7 29.91 1013 10 16.0934 0 0
1:35 pm 13:35 Sunny 95 35 72 22 47 47 NNW 6 9 29.9 1013 10 16.0934 0 0
1:55 pm 13:55 Partly Cloudy 97 36 73 23 47 47 WNW 8 13 29.9 1013 10 16.0934 0 0
2:15 pm 14:15 Partly Cloudy 95 35 72 22 47 47 W 7 11 29.9 1013 10 16.0934 0 0
2:35 pm 14:35 Partly Cloudy 95 35 72 22 47 47 WNW 7 11 29.9 1013 10 16.0934 0 0
2:55 pm 14:55 Partly Cloudy 97 36 72 22 44 44 W 8 13 29.89 1012 10 16.0934 0 0
3:15 pm 15:15 Partly Cloudy 97 36 72 22 44 44 Calm 29.88 1012 10 16.0934 0 0
3:35 pm 15:35 Partly Cloudy 97 36 72 22 44 44 WSW 5 7 29.88 1012 10 16.0934 0 0
3:55 pm 15:55 Mostly Cloudy 95 35 72 22 47 47 WSW 8 13 29.88 1012 10 16.0934 0 0
4:15 pm 16:15 Mostly Cloudy 86 30 77 25 75 75 N 6 9 29.89 1012 10 16.0934 0 0
4:35 pm 16:35 Partly Cloudy 90 32 79 26 71 71 WNW 3 6 29.88 1012 10 16.0934 0 0
4:55 pm 16:55 Partly Cloudy 88 31 73 23 62 62 NNW 10 17 29.88 1012 10 16.0934 0 0
5:15 pm 17:15 Partly Cloudy 90 32 73 23 59 59 NW 6 9 29.88 1012 10 16.0934 0 0
5:35 pm 17:35 Sunny 91 33 72 22 52 52 Calm 29.86 1011 10 16.0934 0 0
5:55 pm 17:55 Sunny 91 33 72 22 52 52 Calm 29.86 1011 10 16.0934 0 0
6:15 pm 18:15 Sunny 91 33 72 22 52 52 N 5 7 29.85 1011 10 16.0934 0 0
6:35 pm 18:35 Sunny 91 33 72 22 52 52 NNE 6 9 29.87 1012 10 16.0934 0 0
6:55 pm 18:55 Partly Cloudy 93 34 68 20 44 44 N 5 7 29.86 1011 10 16.0934 0 0
7:15 pm 19:15 Mostly Cloudy 90 32 77 25 67 67 S 13 20 29.89 1012 10 16.0934 0 0
7:35 pm 19:35 Cloudy 86 30 77 25 75 75 S 8 13 29.9 1012 10 16.0934 0 0
7:55 pm 19:55 Mostly Cloudy 86 30 77 25 75 75 S 8 13 29.91 1013 10 16.0934 0 0
8:15 pm 20:15 Partly Cloudy 86 30 73 23 66 66 Calm 29.91 1013 10 16.0934 0 0
8:35 pm 20:35 Mostly Cloudy 84 29 73 23 70 70 Calm 29.91 1013 10 16.0934 0 0
8:55 pm 20:55 Mostly Cloudy 81 27 73 23 79 79 Calm 29.93 1014 10 16.0934 0 0
9:15 pm 21:15 Partly Cloudy 81 27 73 23 79 79 Calm 29.93 1014 10 16.0934 0 0
9:35 pm 21:35 Partly Cloudy 82 28 73 23 74 74 Calm 29.94 1014 10 16.0934 0 0
9:55 pm 21:55 Partly Cloudy 82 28 73 23 74 74 SSE 3 6 29.94 1014 10 16.0934 0 0
10:15 pm 22:15 Clear 79 26 73 23 84 84 Calm 29.94 1014 10 16.0934 0 0
10:35 pm 22:35 Clear 79 26 73 23 84 84 Calm 29.95 1014 10 16.0934 0 0
10:55 pm 22:55 Clear 77 25 73 23 89 89 WSW 5 7 29.95 1014 10 16.0934 0 0
11:15 pm 23:15 Clear 77 25 73 23 89 89 W 5 7 29.96 1015 10 16.0934 0 0
11:35 pm 23:35 Clear 77 25 73 23 89 89 WNW 5 7 29.96 1015 10 16.0934 0 0
11:55 pm 23:55 Clear 77 25 73 23 89 89 WNW 3 6 29.96 1015 10 16.0934 0 0

Powered by AerisWeather